Brady, TX

7:08 PM CST on November 22, 2017 (GMT -0600)
Curtis

Weather History for KBBD - February, 2013

Change the Weather History Date:

Thursday, February 7, 2013

  Actual Average (KJCT) Record (KJCT)
Temperature  
Mean Temperature 64 °F -  
Max Temperature 78 °F 60 °F 80 °F (1999)
Min Temperature 51 °F 35 °F 19 °F (2016)
Growing Degree Days 14 (Base 50)    
Moisture  
Dew Point 48 °F    
Average Humidity 62    
Maximum Humidity 100    
Minimum Humidity 22    
Precipitation  
Precipitation 0.00 in - - ()
Sea Level Pressure  
Sea Level Pressure 29.97 in    
Wind  
Wind Speed 11 mph (West)    
Max Wind Speed 20 mph    
Max Gust Speed -    
Visibility 10 miles    
Events      
Averages and records for this station are not official NWS values.
T = Trace of Precipitation, MM = Missing Value Source: NWS Daily Summary

Daily Weather History Graph

Daily Weather History Graph

Search for Another Location

Airport or City:

Trip Planner

Search our weather history database for the weather conditions in past years. The results will help you decide how hot, cold, wet, or windy it might be!

Date:

Astronomy

Feb. 07, 2013 Rise Set
Actual Time 7:25 AM CST 6:18 PM CST
Civil Twilight 6:59 AM CST 6:43 PM CST
Nautical Twilight 6:31 AM CST 7:12 PM CST
Astronomical Twilight 6:02 AM CST 7:40 PM CST
Moon 5:00 AM CST (2/7) 3:49 PM CST (2/7)
Length of Visible Light 11h 43m
Length of Day
10h 53m
Waning Crescent, 9% of the Moon is Illuminated
Feb 7
Waning Crescent
Feb 10
New
Feb 17
First Quarter
Feb 25
Full
Mar 4
Last Quarter

Hourly Weather History & Observations

Time (CST) Temp. Dew Point Humidity Pressure Visibility Wind Dir Wind Speed Gust Speed Precip Events Conditions
12:55 AM 55.4 °F 55.4 °F 100% 29.89 in 10.0 mi SE 5.8 mph - N/A   Unknown
1:15 AM 55.4 °F 55.4 °F 100% 29.90 in 10.0 mi SE 6.9 mph - N/A   Unknown
1:35 AM 55.4 °F 55.4 °F 100% 29.89 in 10.0 mi SSE 6.9 mph - N/A   Unknown
1:55 AM 55.4 °F 55.4 °F 100% 29.89 in 10.0 mi SSE 5.8 mph - N/A   Unknown
2:15 AM 55.4 °F 55.4 °F 100% 29.90 in 10.0 mi South 8.1 mph - N/A   Unknown
2:35 AM 57.2 °F 55.4 °F 94% 29.90 in 10.0 mi South 10.4 mph - N/A   Unknown
2:55 AM 57.2 °F 57.2 °F 100% 29.90 in 10.0 mi SSW 16.1 mph - N/A   Unknown
3:15 AM 57.2 °F 57.2 °F 100% 29.90 in 10.0 mi SSW 16.1 mph - N/A   Unknown
3:35 AM 59.0 °F 55.4 °F 88% 29.90 in 10.0 mi South 12.7 mph - N/A   Unknown
3:55 AM 59.0 °F 55.4 °F 88% 29.89 in 10.0 mi South 13.8 mph - N/A   Unknown
4:15 AM 59.0 °F 55.4 °F 88% 29.90 in 10.0 mi South 10.4 mph - N/A   Unknown
4:35 AM 60.8 °F 55.4 °F 82% 29.90 in 10.0 mi SSW 9.2 mph - N/A   Unknown
4:55 AM 60.8 °F 55.4 °F 82% 29.90 in 10.0 mi SSW 10.4 mph - N/A   Unknown
5:15 AM 60.8 °F 55.4 °F 82% 29.91 in 10.0 mi SSW 8.1 mph - N/A   Unknown
5:35 AM 60.8 °F 55.4 °F 82% 29.91 in 10.0 mi SSW 6.9 mph - N/A   Unknown
5:55 AM 59.0 °F 55.4 °F 88% 29.91 in 10.0 mi South 6.9 mph - N/A   Unknown
6:15 AM 57.2 °F 53.6 °F 88% 29.91 in 10.0 mi South 6.9 mph - N/A   Unknown
6:35 AM 57.2 °F 55.4 °F 94% 29.91 in 10.0 mi South 5.8 mph - N/A   Unknown
6:55 AM 57.2 °F 55.4 °F 94% 29.91 in 10.0 mi South 5.8 mph - N/A   Unknown
7:15 AM 57.2 °F 55.4 °F 94% 29.91 in 10.0 mi South 5.8 mph - N/A   Unknown
7:35 AM 55.4 °F 55.4 °F 100% 29.92 in 10.0 mi South 6.9 mph - N/A   Unknown
7:55 AM 57.2 °F 55.4 °F 94% 29.93 in 10.0 mi SSW 8.1 mph - N/A   Unknown
8:15 AM 60.8 °F 55.4 °F 82% 29.93 in 10.0 mi SW 8.1 mph - N/A   Unknown
8:35 AM 62.6 °F 57.2 °F 82% 29.93 in 10.0 mi SW 11.5 mph - N/A   Unknown
8:55 AM 62.6 °F 57.2 °F 82% 29.93 in 10.0 mi SW 11.5 mph - N/A   Unknown
9:15 AM 64.4 °F 57.2 °F 77% 29.94 in 10.0 mi SW 13.8 mph - N/A   Unknown
9:35 AM 66.2 °F 57.2 °F 73% 29.94 in 10.0 mi SW 12.7 mph - N/A   Unknown
9:55 AM 69.8 °F 55.4 °F 60% 29.94 in 10.0 mi SW 12.7 mph - N/A   Unknown
10:15 AM 71.6 °F 53.6 °F 53% 29.95 in 10.0 mi WSW 17.3 mph - N/A   Unknown
10:35 AM 73.4 °F 51.8 °F 47% 29.95 in 10.0 mi WSW 18.4 mph - N/A   Unknown
10:55 AM 73.4 °F 48.2 °F 41% 29.96 in 10.0 mi West 17.3 mph - N/A   Unknown
11:15 AM 73.4 °F 48.2 °F 41% 29.95 in 10.0 mi West 19.6 mph - N/A   Unknown
11:35 AM 73.4 °F 50.0 °F 44% 29.95 in 10.0 mi WSW 16.1 mph - N/A   Clear
11:55 AM 75.2 °F 46.4 °F 36% 29.95 in 10.0 mi West 13.8 mph - N/A   Clear
12:15 PM 75.2 °F 46.4 °F 36% 29.95 in 10.0 mi West 16.1 mph - N/A   Clear
12:35 PM 75.2 °F 46.4 °F 36% 29.95 in 10.0 mi West 13.8 mph - N/A   Clear
12:55 PM 75.2 °F 44.6 °F 34% 29.95 in 10.0 mi West 17.3 mph - N/A   Clear
1:15 PM 77.0 °F 44.6 °F 32% 29.94 in 10.0 mi WSW 18.4 mph - N/A   Clear
1:35 PM 78.8 °F 44.6 °F 30% 29.93 in 10.0 mi WNW 18.4 mph - N/A   Clear
1:55 PM 75.2 °F 39.2 °F 27% 29.93 in 10.0 mi WNW 18.4 mph - N/A   Clear
2:15 PM 75.2 °F 41.0 °F 29% 29.93 in 10.0 mi WNW 15.0 mph - N/A   Clear
2:35 PM 77.0 °F 35.6 °F 22% 29.93 in 10.0 mi WNW 12.7 mph - N/A   Clear
2:55 PM 75.2 °F 35.6 °F 24% 29.94 in 10.0 mi NW 17.3 mph - N/A   Clear
3:15 PM 75.2 °F 35.6 °F 24% 29.94 in 10.0 mi WNW 19.6 mph - N/A   Clear
3:35 PM 75.2 °F 37.4 °F 25% 29.94 in 10.0 mi WNW 15.0 mph - N/A   Clear
3:55 PM 75.2 °F 35.6 °F 24% 29.94 in 10.0 mi NW 17.3 mph - N/A   Clear
4:15 PM 75.2 °F 35.6 °F 24% 29.94 in 10.0 mi WNW 15.0 mph - N/A   Clear
4:35 PM 73.4 °F 35.6 °F 25% 29.95 in 10.0 mi NW 16.1 mph - N/A   Clear
4:55 PM 73.4 °F 35.6 °F 25% 29.96 in 10.0 mi WNW 18.4 mph - N/A   Clear
5:15 PM 73.4 °F 37.4 °F 27% 29.96 in 10.0 mi WNW 13.8 mph - N/A   Clear
5:35 PM 71.6 °F 37.4 °F 29% 29.97 in 10.0 mi NW 13.8 mph - N/A   Clear
5:55 PM 69.8 °F 37.4 °F 31% 29.99 in 10.0 mi NNW 16.1 mph - N/A   Clear
6:15 PM 66.2 °F 37.4 °F 35% 30.00 in 10.0 mi North 13.8 mph - N/A   Clear
6:35 PM 64.4 °F 37.4 °F 37% 30.02 in 10.0 mi NNW 10.4 mph - N/A   Clear
6:55 PM 62.6 °F 39.2 °F 42% 30.03 in 10.0 mi NNW 11.5 mph - N/A   Clear
7:15 PM 62.6 °F 42.8 °F 48% 30.05 in 10.0 mi North 15.0 mph - N/A   Clear
7:35 PM 60.8 °F 44.6 °F 55% 30.06 in 10.0 mi North 16.1 mph - N/A   Clear
7:55 PM 60.8 °F 44.6 °F 55% 30.07 in 10.0 mi North 15.0 mph - N/A   Clear
8:15 PM 59.0 °F 44.6 °F 59% 30.08 in 10.0 mi North 16.1 mph - N/A   Clear
8:35 PM 57.2 °F 44.6 °F 63% 30.10 in 10.0 mi North 12.7 mph - N/A   Clear
8:55 PM 57.2 °F 44.6 °F 63% 30.10 in 10.0 mi North 11.5 mph - N/A   Clear
9:15 PM 55.4 °F 44.6 °F 67% 30.11 in 10.0 mi NNW 12.7 mph - N/A   Clear
9:35 PM 55.4 °F 44.6 °F 67% 30.12 in 10.0 mi North 12.7 mph - N/A   Clear
9:55 PM 55.4 °F 44.6 °F 67% 30.13 in 10.0 mi NNW 13.8 mph - N/A   Clear
10:15 PM 53.6 °F 44.6 °F 72% 30.14 in 10.0 mi North 12.7 mph - N/A   Clear
10:35 PM 53.6 °F 42.8 °F 67% 30.15 in 10.0 mi North 15.0 mph - N/A   Clear
11:15 PM 51.8 °F 42.8 °F 71% 30.16 in 10.0 mi North 12.7 mph - N/A   Clear
11:35 PM 51.8 °F 41.0 °F 67% 30.16 in 10.0 mi North 11.5 mph - N/A   Clear
11:55 PM 51.8 °F 41.0 °F 67% 30.16 in 10.0 mi North 12.7 mph - N/A   Clear